Newark, NJ

10:11 PM EDT on October 14, 2019 (GMT -0400)
Newark International

Weather History for KEWR - May, 2019

Change the Weather History Date:

Monday, May 20, 2019

  Actual Average Record
Temperature  
Mean Temperature 78 °F 64 °F  
Max Temperature 89 °F 73 °F 99 °F (1996)
Min Temperature 68 °F 55 °F 41 °F (2002)
Degree Days  
Heating Degree Days 0 3  
Month to date heating degree days 104 108  
Since 1 July heating degree days 4698 4828  
Cooling Degree Days 14 2  
Month to date cooling degree days 29 27  
Year to date cooling degree days 44 39  
Growing Degree Days 28 (Base 50)    
Moisture  
Dew Point 61 °F    
Average Humidity 61    
Maximum Humidity 90    
Minimum Humidity 32    
Precipitation  
Precipitation T in 0.13 in 1.33 in (1972)
Month to date precipitation 4.73 2.52  
Year to date precipitation 20.38 17.32  
Snow  
Snow 0.00 in 0.00 in 0.00 in (2002)
Month to date snowfall 0.0 0.0  
Since 1 July snowfall 22.0 28.5  
Snow Depth 0.00 in    
Sea Level Pressure  
Sea Level Pressure 29.80 in    
Wind  
Wind Speed 9 mph ()    
Max Wind Speed 32 mph    
Max Gust Speed 39 mph    
Visibility 10.0 miles    
Events Thunderstorm    
T = Trace of Precipitation, MM = Missing Value Source: Averaged Metar Reports

Daily Weather History Graph

Daily Weather History Graph

Search for Another Location

Airport or City:

Astronomy

May. 20, 2019 Rise Set
Actual Time 5:35 AM EDT 8:11 PM EDT
Civil Twilight 5:03 AM EDT 8:43 PM EDT
Nautical Twilight 4:24 AM EDT 9:22 PM EDT
Astronomical Twilight 3:40 AM EDT 10:07 PM EDT
Moon 10:10 PM EDT (5/20) 7:01 AM EDT (5/20)
Length of Visible Light 15h 39m
Length of Day
14h 35m
Waning Gibbous, 96% of the Moon is Illuminated
May 20
Waning Gibbous
May 26
Last Quarter
Jun 3
New
Jun 10
First Quarter
Jun 17
Full

Hourly Weather History & Observations

Time (EDT) Temp. Heat Index Dew Point Humidity Pressure Visibility Wind Dir Wind Speed Gust Speed Precip Events Conditions
12:51 AM 71.1 °F - 66.9 °F 87% 29.90 in 10.0 mi South 4.6 mph - 0.02 in Thunderstorm Thunderstorm
1:24 AM 71.1 °F - 66.9 °F 87% 29.93 in 10.0 mi West 6.9 mph - 0.00 in   Mostly Cloudy
1:51 AM 71.1 °F - 66.9 °F 87% 29.91 in 10.0 mi Calm Calm - 0.00 in   Mostly Cloudy
2:51 AM 71.1 °F - 66.0 °F 84% 29.90 in 10.0 mi SSE 4.6 mph - N/A   Overcast
3:04 AM 70.0 °F - 66.0 °F 87% 29.89 in 10.0 mi Calm Calm - N/A Thunderstorm Thunderstorm
3:51 AM 70.0 °F - 66.9 °F 90% 29.86 in 10.0 mi SSE 5.8 mph - 0.00 in Thunderstorm Thunderstorm
4:00 AM 70.0 °F - 66.0 °F 87% 29.85 in 10.0 mi SSE 6.9 mph - N/A   Overcast
4:51 AM 70.0 °F - 64.9 °F 84% 29.83 in 10.0 mi South 8.1 mph - N/A   Mostly Cloudy
5:51 AM 70.0 °F - 64.0 °F 81% 29.82 in 10.0 mi South 5.8 mph - N/A   Mostly Cloudy
6:51 AM 70.0 °F - 64.9 °F 84% 29.83 in 10.0 mi South 4.6 mph - N/A   Mostly Cloudy
7:51 AM 72.0 °F - 64.9 °F 78% 29.83 in 10.0 mi SW 13.8 mph - N/A   Mostly Cloudy
8:51 AM 75.0 °F - 66.0 °F 73% 29.84 in 10.0 mi WSW 15.0 mph - N/A   Mostly Cloudy
9:51 AM 81.0 °F 83.3 °F 66.9 °F 62% 29.83 in 10.0 mi West 12.7 mph - N/A   Mostly Cloudy
10:51 AM 82.9 °F 84.4 °F 64.0 °F 53% 29.81 in 10.0 mi WSW 20.7 mph 28.8 mph N/A   Scattered Clouds
11:51 AM 82.9 °F 84.0 °F 63.0 °F 51% 29.80 in 10.0 mi WSW 20.7 mph 28.8 mph N/A   Mostly Cloudy
12:51 PM 84.9 °F 85.9 °F 63.0 °F 48% 29.79 in 10.0 mi SW 20.7 mph 32.2 mph N/A   Mostly Cloudy
1:51 PM 87.1 °F 87.0 °F 61.0 °F 41% 29.76 in 10.0 mi West 15.0 mph 29.9 mph N/A   Mostly Cloudy
2:51 PM 84.0 °F 84.4 °F 61.0 °F 46% 29.74 in 10.0 mi SW 17.3 mph 25.3 mph N/A   Mostly Cloudy
3:51 PM 89.1 °F 87.3 °F 55.9 °F 32% 29.71 in 10.0 mi SW 24.2 mph 39.1 mph N/A   Mostly Cloudy
4:51 PM 88.0 °F 86.9 °F 57.9 °F 36% 29.69 in 10.0 mi WSW 20.7 mph 29.9 mph N/A   Scattered Clouds
5:51 PM 86.0 °F 85.0 °F 57.9 °F 38% 29.69 in 10.0 mi SW 24.2 mph 35.7 mph N/A   Scattered Clouds
6:51 PM 86.0 °F 84.9 °F 57.0 °F 37% 29.70 in 10.0 mi West 13.8 mph - N/A   Mostly Cloudy
7:51 PM 84.0 °F 83.8 °F 59.0 °F 43% 29.71 in 10.0 mi West 12.7 mph - N/A   Scattered Clouds
8:51 PM 81.0 °F - 50.0 °F 34% 29.73 in 10.0 mi West 15.0 mph 23.0 mph N/A   Scattered Clouds
9:51 PM 79.0 °F - 48.0 °F 34% 29.73 in 10.0 mi West 11.5 mph - N/A   Partly Cloudy
10:51 PM 78.1 °F - 48.9 °F 36% 29.75 in 10.0 mi West 11.5 mph - N/A   Partly Cloudy
11:29 PM 73.9 °F - 54.0 °F 50% 29.78 in 10.0 mi NW 21.9 mph 32.2 mph N/A   Partly Cloudy
11:51 PM 71.1 °F - 54.0 °F 55% 29.80 in 10.0 mi NNW 21.9 mph 26.5 mph N/A   Partly Cloudy